Weather History for Rome, NY

Change the Weather History Date:

Monday, December 31, 2012

  Actual Average Record
Temperature  
Mean Temperature 26 °F -  
Max Temperature 34 °F 33 °F 53 °F (1992)
Min Temperature 18 °F 13 °F -9 °F (1980)
Degree Days  
Heating Degree Days 39    
Moisture  
Dew Point 20 °F    
Average Humidity 75    
Maximum Humidity 89    
Minimum Humidity 56    
Precipitation  
Precipitation 0.00 in - - ()
Sea Level Pressure  
Sea Level Pressure 30.00 in    
Wind  
Wind Speed 4 mph (SW)    
Max Wind Speed 16 mph    
Max Gust Speed 25 mph    
Visibility 9 miles    
Events Snow    
Averages and records for this station are not official NWS values.
T = Trace of Precipitation, MM = Missing Value Source: NWS Daily Summary

Daily Weather History Graph

Daily Weather History Graph

Search for Another Location

Airport:

Trip Planner

Search our weather history database for the weather conditions in past years. The results will help you decide how hot, cold, wet, or windy it might be!

Date:

Astronomy

Dec. 31, 2012 Rise Set
Actual Time 7:33 AM EST 4:36 PM EST
Civil Twilight 7:01 AM EST 5:08 PM EST
Nautical Twilight 6:25 AM EST 5:44 PM EST
Astronomical Twilight 5:50 AM EST 6:19 PM EST
Moon 8:10 PM EST (12/31) 9:08 AM EST (12/31)
Length of Visible Light 10h 07m
Length of Day
9h 02m
Waning Gibbous, 90% of the Moon is Illuminated
Dec 31
Waning Gibbous
Jan 4
Last Quarter
Jan 11
New
Jan 18
First Quarter
Jan 26
Full

Hourly Weather History & Observations

Time (EST) Temp. Windchill Dew Point Humidity Pressure Visibility Wind Dir Wind Speed Gust Speed Precip Events Conditions
12:10 AM 18.0 °F - 14.0 °F 84% 30.17 in 2.5 mi Calm Calm - 0.00 in Snow Light Snow
12:24 AM 18.0 °F - 14.0 °F 84% 30.16 in 3.0 mi Calm Calm - 0.00 in Snow Light Snow
12:53 AM 18.0 °F - 15.1 °F 88% 30.17 in 7.0 mi Calm Calm - 0.00 in Snow Light Snow
1:03 AM 18.0 °F - 15.1 °F 88% 30.15 in 9.0 mi Calm Calm - 0.00 in Snow Light Snow
1:53 AM 18.0 °F - 15.1 °F 88% 30.16 in 10.0 mi Calm Calm - 0.00 in   Overcast
2:53 AM 19.0 °F - 15.1 °F 85% 30.15 in 10.0 mi Calm Calm - 0.00 in   Overcast
3:25 AM 19.0 °F 13.9 °F 16.0 °F 88% 30.11 in 7.0 mi ESE 3.5 mph - 0.00 in Snow Light Snow
3:53 AM 19.0 °F 13.9 °F 16.0 °F 88% 30.13 in 10.0 mi SSE 3.5 mph - 0.00 in   Overcast
4:53 AM 19.9 °F - 17.1 °F 89% 30.12 in 10.0 mi Calm Calm - N/A   Overcast
5:53 AM 19.9 °F - 17.1 °F 89% 30.11 in 10.0 mi Calm Calm - N/A   Overcast
7:53 AM 27.0 °F 16.7 °F 21.9 °F 81% 30.09 in 10.0 mi WSW 11.5 mph - N/A   Overcast
8:53 AM 27.0 °F 17.3 °F 23.0 °F 85% 30.07 in 8.0 mi WSW 10.4 mph - N/A   Overcast
9:53 AM 28.9 °F 20.4 °F 23.0 °F 78% 30.07 in 9.0 mi WSW 9.2 mph - N/A   Overcast
10:53 AM 30.0 °F 20.5 °F 21.9 °F 72% 30.06 in 10.0 mi WSW 11.5 mph - N/A   Overcast
11:53 AM 30.9 °F 23.5 °F 21.9 °F 69% 30.01 in 10.0 mi WSW 8.1 mph - N/A   Overcast
12:53 PM 33.1 °F 30.0 °F 21.0 °F 61% 29.96 in 10.0 mi Variable 3.5 mph - N/A   Clear
1:53 PM 33.1 °F 26.9 °F 21.0 °F 61% 29.94 in 10.0 mi WSW 6.9 mph - N/A   Mostly Cloudy
2:53 PM 34.0 °F 28.0 °F 19.9 °F 56% 29.92 in 10.0 mi WSW 6.9 mph - N/A   Mostly Cloudy
3:53 PM 33.1 °F - 19.0 °F 56% 29.90 in 10.0 mi Calm Calm - N/A   Mostly Cloudy
4:53 PM 30.9 °F - 19.9 °F 64% 29.89 in 10.0 mi Calm Calm - N/A   Overcast
5:53 PM 32.0 °F 26.4 °F 21.0 °F 64% 29.88 in 10.0 mi South 5.8 mph - N/A   Overcast
7:53 PM 33.1 °F 26.1 °F 21.9 °F 64% 29.85 in 10.0 mi SW 8.1 mph - N/A   Overcast
8:27 PM 34.0 °F 23.8 °F 23.0 °F 64% 29.83 in 10.0 mi WSW 16.1 mph 21.9 mph N/A   Overcast
8:53 PM 34.0 °F 25.0 °F 24.1 °F 67% 29.84 in 10.0 mi WSW 12.7 mph - N/A   Overcast
9:53 PM 34.0 °F 25.5 °F 25.0 °F 70% 29.82 in 10.0 mi WSW 11.5 mph 25.3 mph N/A   Overcast
10:53 PM 34.0 °F 24.2 °F 26.1 °F 73% 29.82 in 10.0 mi West 15.0 mph 23.0 mph N/A   Overcast
11:45 PM 34.0 °F 24.6 °F 26.1 °F 73% 29.80 in 10.0 mi WSW 13.8 mph 21.9 mph N/A   Overcast
11:53 PM 34.0 °F 25.0 °F 26.1 °F 73% 29.81 in 10.0 mi WSW 12.7 mph - N/A   Overcast